TimeMST,TemperatureF,Dew PointF,Humidity,Sea Level PressureIn,VisibilityMPH,Wind Direction,Wind SpeedMPH,Gust SpeedMPH,PrecipitationIn,Events,Conditions,WindDirDegrees,DateUTC
12:53 AM,21.0,15.1,78,29.98,10.0,ENE,3.5,-,N/A,,Clear,70,2012-12-08 07:53:00
1:53 AM,23.0,17.1,78,29.96,10.0,East,4.6,-,N/A,,Clear,80,2012-12-08 08:53:00
2:53 AM,19.9,15.1,81,29.98,10.0,East,4.6,-,N/A,,Clear,80,2012-12-08 09:53:00
4:53 AM,17.1,14.0,88,30.01,10.0,ENE,3.5,-,N/A,,Clear,70,2012-12-08 11:53:00
5:53 AM,16.0,12.9,88,30.03,10.0,Calm,Calm,-,N/A,,Clear,0,2012-12-08 12:53:00
6:53 AM,16.0,12.0,84,30.05,10.0,Calm,Calm,-,N/A,,Clear,0,2012-12-08 13:53:00
7:53 AM,18.0,14.0,84,30.06,10.0,ENE,4.6,-,N/A,,Clear,70,2012-12-08 14:53:00
8:53 AM,26.1,19.0,75,30.07,10.0,ENE,4.6,-,N/A,,Clear,70,2012-12-08 15:53:00
9:53 AM,33.1,21.9,64,30.03,10.0,Variable,3.5,-,N/A,,Clear,0,2012-12-08 16:53:00
10:53 AM,39.9,24.1,53,30.02,10.0,Variable,4.6,-,N/A,,Clear,0,2012-12-08 17:53:00
11:53 AM,44.1,23.0,43,29.95,10.0,SW,10.4,-,N/A,,Clear,230,2012-12-08 18:53:00
12:53 PM,46.0,21.9,39,29.91,10.0,SSW,9.2,17.3,N/A,,Partly Cloudy,210,2012-12-08 19:53:00
1:53 PM,46.9,21.9,37,29.88,10.0,SW,16.1,23.0,N/A,,Clear,220,2012-12-08 20:53:00
2:53 PM,48.0,12.9,24,29.87,10.0,SW,15.0,24.2,N/A,,Clear,230,2012-12-08 21:53:00
3:53 PM,46.0,10.9,24,29.89,10.0,WSW,15.0,-,N/A,,Clear,250,2012-12-08 22:53:00
4:53 PM,42.1,9.0,26,29.93,10.0,WSW,11.5,20.7,N/A,,Clear,240,2012-12-08 23:53:00
5:53 PM,37.9,9.0,30,29.96,10.0,WSW,3.5,-,N/A,,Clear,240,2012-12-09 00:53:00
6:53 PM,37.0,10.0,33,29.96,10.0,Calm,Calm,-,N/A,,Clear,0,2012-12-09 01:53:00
7:53 PM,34.0,10.0,37,29.97,10.0,South,5.8,-,N/A,,Clear,170,2012-12-09 02:53:00
8:53 PM,32.0,10.0,40,29.95,10.0,Calm,Calm,-,N/A,,Clear,0,2012-12-09 03:53:00
9:53 PM,24.1,9.0,53,29.96,10.0,Calm,Calm,-,N/A,,Clear,0,2012-12-09 04:53:00
10:53 PM,24.1,10.0,55,29.92,10.0,NNE,3.5,-,N/A,,Clear,30,2012-12-09 05:53:00
11:53 PM,23.0,10.9,60,29.89,10.0,NE,4.6,-,N/A,,Clear,50,2012-12-09 06:53:00